Miscellaneous Local Product
Issued by NWS Hastings, NE

Home | Current Version | Previous Version | Graphics & Text | Print | Product List | Glossary On
Versions: 1 2 3 4 5 6 7 8 9 10 11 12 13 14 15 16 17 18 19 20 21 22 23 24 25 26 27 28 29 30 31 32 33 34 35 36 37 38 39 40 41 42 43 44 45 46 47 48 49 50
000
AXUS43 KGID 190202
MISGRI

GID CWA HOURLY WEATHER ROUNDUP
NATIONAL WEATHER SERVICE HASTINGS NE
900 PM CDT SAT OCT 18 2014

NOTE: "FAIR" INDICATES FEW OR NO CLOUDS BELOW 12,000 FEET WITH NO
SIGNIFICANT WEATHER AND/OR OBSTRUCTIONS TO VISIBILITY.

...SOUTH CENTRAL NEBRASKA...

CITY           SKY/WX    TMP DP  RH WIND       PRES   REMARKS
GRAND ISLAND   CLEAR     48  37  65 SE9       30.14S
HASTINGS       CLEAR     49  37  63 SE10      30.14S
KEARNEY        CLEAR     48  37  66 SE7       30.13S
ORD            PTCLDY    48  39  71 S8        30.10S
YORK           CLEAR     45  36  70 S6        30.16S
AURORA         CLEAR     45  34  66 S7        30.15S
LEXINGTON      CLEAR     52  41  67 S8        30.11R
HOLDREGE       CLEAR     51  39  63 S8        30.12S
HEBRON         CLEAR     44  35  71 S5        30.17S

...NEBRASKA PANHANDLE...

CITY           SKY/WX    TMP DP  RH WIND       PRES   REMARKS
CHADRON        CLEAR     55  42  61 SW3       29.95R
ALLIANCE       CLEAR     47  40  76 SE10      30.00S
SCOTTSBLUFF    CLEAR     52  42  69 E6        30.00R
SIDNEY         CLEAR     53  40  61 S12       30.06R

...WESTERN AND NORTH CENTRAL NEBRASKA...

CITY           SKY/WX    TMP DP  RH WIND       PRES   REMARKS
VALENTINE      CLEAR     59  39  47 S13       30.00S
AINSWORTH      CLEAR     52  40  62 S10       30.03S
ONEILL         PTCLDY    49  40  71 S10       30.08S
BROKEN BOW     CLEAR     53  41  63 S12       30.09S
IMPERIAL       CLEAR     55  40  56 S12       30.07S
NORTH PLATTE   CLEAR     54  39  57 SE8       30.07S
MCCOOK         CLEAR     53  40  61 SE6       30.10S

...EASTERN NEBRASKA...

CITY           SKY/WX    TMP DP  RH WIND       PRES   REMARKS
NORFOLK        CLEAR     45  36  70 SW5       30.12S
SO SIOUX CITY  CLEAR     49  40  71 SE7       30.14F
TEKAMAH        CLEAR     43  37  79 S3        30.16F
COLUMBUS       CLEAR     46  34  61 S5        30.16R
ALBION         PTCLDY    43  34  70 SE6       30.13R
OMAHA EPPLEY   CLEAR     50  41  71 SE5       30.18S
OFFUTT AFB     CLEAR     40  40 100 E3        30.17S
MILLARD        CLEAR     45  43  91 CALM      30.17S
LINCOLN        CLEAR     49  38  65 S3        30.18S
NEBRASKA CITY  CLEAR     49  37  63 SE6       30.18S HAZE
BEATRICE       CLEAR     43  38  83 CALM      30.17S
FALLS CITY     CLEAR     50  41  71 CALM      30.18S

...NORTHERN KANSAS...

CITY           SKY/WX    TMP DP  RH WIND       PRES   REMARKS
GOODLAND       MOCLDY    53  42  66 S12       30.11S
HILL CITY      CLEAR     49  40  71 CALM      30.14S
NORTON         CLEAR     50  37  62 SE8       30.11F
PHILLIPSBURG   CLEAR     52  43  71 SE5       30.14S
SMITH CENTER   CLEAR     48  37  66 E9        30.15F HAZE
BELOIT         CLEAR     48  39  71 SE5       30.15F
HAYS           MOCLDY    52  41  66 SE9       30.15S
RUSSELL        PTCLDY    49  43  80 SE8       30.14F
CONCORDIA      CLEAR     46  39  76 SE5       30.17S
SALINA         PTCLDY    53  43  68 E7        30.17F
TOPEKA         CLEAR     48  44  86 CALM      30.20R



USA.gov is the U.S. government's official web portal to all federal, state and local government web resources and services.